NIMBUS 2 DEB, 59974

Orbit data source: Space-Track

NIMBUS 2 DEB, 59974 is space debris in SSO originally from a launch on Sun, 15 May 1966 UTC launched from the Air Force Western Test Range (AFWTR). Debris objects in space refer to the collection of defunct objects orbiting the Earth. Examples of debris include non-operational satellites, rocket bodies, and fragments generated from explosions, collisions, or faulty payload assembly.

Loading next visibility...
Identifier
59974, 1966-040CD
Orbit
SSO
Country
Flag of USUS
Related business
Manufacturer
Unknown
Mission
Spacecraft
Bus & Motor
Unknown
Mass
Unknown
Launch date (UTC)
1966-05-15 (60 years ago)
Launch vehicle
Unknown
Launch site
Air Force Western Test Range (AFWTR)
Object type
Payload
Rocket body
Debris
Shape & HBR
Unknown shape, 0.1 m
Radar Cross Section
Small (<0.1 m²)

Expand to show TLE details & history
Last TLE update: 1 week ago

TLE from 1 week ago
0 NIMBUS 2 DEB
1 59974U 66040CD  26255.17024251  .00001386  00000-0  24499-2 0  9990
2 59974 100.1467  57.3440 0037150 323.1433  36.7144 13.44334154469470
Epoch: 2026-09-12T04:05Z
TLE epoch observation values (Epoch: 2026-09-12T04:05:08.952Z)
Latitude
-0.00005°
Longitude
4.87362°
Altitude
1,073.723 km
Speed
7.326 km/s
True Right ascension
03h 49m 22s
True Declination
0° 00' 00"
Sunlit
Object was in daylight at epoch
Visualization orbit readout
Latitude
Unknown
Longitude
Unknown
Altitude
Unknown
Speed
Unknown
Apparent Right ascension
Unknown
Apparent Declination
Unknown
Sunlit
N/A
Visualization observer readout
Local Sidereal Time
18:22:22
Azimuth
Unknown
Elevation
Unknown
Doppler factor
Unknown
Orbital elements
Apogee altitude
1,118.256 km
Perigee altitude
1,062.764 km
Semi-major axis
7,468.647 km
Eccentricity
0.00372
Inclination
100.1467°
RAAN
57.344°
Arg. of periapsis
323.1433°
True anomaly
36.96985°
Mean anomaly
36.7144°
Eccentric anomaly
36.84203°
Mean motion
3.36264 °/min
Orbital period
107.06 mins
BSTAR
0.0024499
Loading maneuver chart data...
Computing Atmospheric mass density...
Loading historical data...
Loading historical data...
Loading historical data...
Loading historical data...
Loading historical data...
Loading historical data...
Loading historical data...

Documentation

Showing up to 5 results
|